Etusivu
METAR-TAF:

METAR-TAF

Lentoasemat :

Draughon-Miller Central Texas Regional Airport

Temple, Texas, Yhdysvallat

Leveyspiiri: 31-09N, Pituuspiiri: 097-24W, korkeus merenpinnasta: 208 m

Tämänhetkinen sää

Tämä raportti tehtiin 21 minuuttia sitten, kello 02.51 UTC
Tuuli 7 kn idästä
Lämpötila 14°C
Kosteus 67%
Ilmanpaine 1008 hPa
Näkyvyys: 16.1 km
selkeää

METAR: KTPL 150251Z AUTO 10007KT 10SM CLR 14/08 A2977 RMK AO2 SLP077 T01440078 51004

Aika: 21:12 (03:12 UTC)


TAF: puuttuu

Säähavainnot ja -ennusteet yli 4000 lentoasemalta (METAR- ja TAF-raportit).

Käytössä olevat sääasemat on merkitty karttaan keltaisilla ja punaisilla pisteillä.

Aseta hiiri pisteen päälle nähdäksesi sääaseman nimen.

Klikkaa sitten nähdäksesi säähavainnot ja -ennusteet.

Kartan vaihtaminen: klikkaa mustalla rastilla varustettuja vihreitä pisteitä, niin voit zoomata sisään; viivalla varustettua vihreää pistettä, niin voit zoomata ulos tai vihreitä nuolia, niin pääset viereisille kartoille.


METAR-TAF: